User: anonymous   Login
Location: Unspecified
(0.0000°N, 0.0000°E)
Time: 01:38:39
(UTC+00:00)
Language:

USA 110 - Orbit

View from above orbital plane
View from above orbital plane
View from above satellite
View from above satellite

Ground track
Ground track

The orbit data is extracted from the following two-line orbital elements,

1 23567U 95022A   21017.39608889 0.00000000  00000-0  00000-0 0    06
2 23567  15.0919  25.6748 0031938  88.7635 271.6209  1.00270000    00
Epoch (UTC): 17 January 2021 09:30:22
Eccentricity: 0.0031938
inclination: 15.0919°
perigee height: 35652 km
apogee height: 35921 km
right ascension of ascending node: 25.6748°
argument of perigee: 88.7635°
revolutions per day: 1.00270000
mean anomaly at epoch: 271.6209°
orbit number at epoch: 0

The dashed part of the orbit path shows where the satellite is in the earth's shadow,  

DLR